Location: Bonny Doon Airfield
(37.0704°N, 122.1252°W)
Time: 18:01:55
(UTC-08:00)

Vanguard 2 - Pass Details

Date: 16 December 2017
Orbit: 553 x 2939 km, 32.9° (Epoch: 22 January)

Event Time Altitude Azimuth Distance (km) Brightness Sun altitude
Rises 11:31:25 0° 206° (SSW) 6,339 13.0 29.1°
Reaches altitude 10° 11:37:33 10° 193° (SSW) 4,944 13.0 29.3°
Maximum altitude 11:46:10 20° 153° (SSE) 3,475 12.4 29.4°
Drops below altitude 10° 11:52:39 10° 110° (ESE) 3,597 11.3 29.5°
Sets 11:56:08 0° 94° (E) 4,203 11.4 29.6°
